Location: C�mpuri de-Sus
(45.9500°N, 22.5500°E)
Time: 03:52:07
(UTC+00:00)

Cosmos 1300 - Pass Details

Date: 24 October 2021
Orbit: 509 x 512 km, 82.5° (Epoch: 30 November)

Event Time Altitude Azimuth Distance (km) Brightness Sun altitude
Rises 16:17:41 0° 175° (S) 2,612 6.3 -9.2°
Reaches altitude 10° 16:19:51 10° 170° (S) 1,731 5.3 -9.6°
Maximum altitude 16:23:31 50° 95° (E) 658 2.8 -10.2°
Drops below altitude 10° 16:27:14 10° 19° (NNE) 1,744 5.1 -10.9°
Sets 16:29:24 0° 14° (NNE) 2,636 6.1 -11.3°
